TimeICT,TemperatureF,Dew PointF,Humidity,Sea Level PressureIn,VisibilityMPH,Wind Direction,Wind SpeedMPH,Gust SpeedMPH,PrecipitationIn,Events,Conditions,WindDirDegrees,DateUTC
12:00 AM,77.0,73.4,89,29.83,1.9,Calm,Calm,-,N/A,,Mostly Cloudy,0,2013-02-12 17:00:00
12:30 AM,77.0,73.4,89,29.83,1.9,Calm,Calm,-,N/A,,Mostly Cloudy,0,2013-02-12 17:30:00
1:00 AM,75.2,73.4,94,29.83,1.9,Calm,Calm,-,N/A,,Mostly Cloudy,0,2013-02-12 18:00:00
1:30 AM,75.2,73.4,94,29.83,1.9,Calm,Calm,-,N/A,,Mostly Cloudy,0,2013-02-12 18:30:00
2:30 AM,75.2,71.6,89,29.80,1.9,Calm,Calm,-,N/A,,Scattered Clouds,0,2013-02-12 19:30:00
3:30 AM,75.2,71.6,89,29.80,1.9,Calm,Calm,-,N/A,,Scattered Clouds,0,2013-02-12 20:30:00
4:00 AM,75.2,71.6,89,29.80,1.9,Calm,Calm,-,N/A,,Scattered Clouds,0,2013-02-12 21:00:00
4:30 AM,75.2,71.6,89,29.80,1.9,Calm,Calm,-,N/A,,Scattered Clouds,0,2013-02-12 21:30:00
5:00 AM,75.2,71.6,89,29.80,1.9,Calm,Calm,-,N/A,,Scattered Clouds,0,2013-02-12 22:00:00
5:30 AM,75.2,71.6,89,29.80,1.9,Calm,Calm,-,N/A,,Scattered Clouds,0,2013-02-12 22:30:00
6:00 AM,75.2,71.6,89,29.83,1.9,Calm,Calm,-,N/A,,Mostly Cloudy,0,2013-02-12 23:00:00
6:30 AM,75.2,73.4,94,29.83,1.2,Calm,Calm,-,N/A,,Mostly Cloudy,0,2013-02-12 23:30:00
7:00 AM,75.2,73.4,94,29.83,1.2,Calm,Calm,-,N/A,,Mostly Cloudy,0,2013-02-13 00:00:00
7:30 AM,77.0,73.4,89,29.86,0.9,Calm,Calm,-,N/A,,Mostly Cloudy,0,2013-02-13 00:30:00
8:00 AM,77.0,73.4,89,29.86,0.9,Calm,Calm,-,N/A,,Mostly Cloudy,0,2013-02-13 01:00:00
8:30 AM,78.8,75.2,89,29.86,0.9,Calm,Calm,-,N/A,,Mostly Cloudy,0,2013-02-13 01:30:00
9:00 AM,80.6,75.2,84,29.89,0.9,Calm,Calm,-,N/A,,Mostly Cloudy,0,2013-02-13 02:00:00
9:30 AM,80.6,75.2,84,29.89,1.2,North,4.6,-,N/A,,Mostly Cloudy,350,2013-02-13 02:30:00
10:00 AM,80.6,73.4,79,29.89,1.2,North,6.9,-,N/A,,Mostly Cloudy,350,2013-02-13 03:00:00
10:30 AM,80.6,73.4,79,29.89,1.2,North,6.9,-,N/A,,Mostly Cloudy,10,2013-02-13 03:30:00
11:00 AM,82.4,71.6,70,29.89,1.2,NE,4.6,-,N/A,,Mostly Cloudy,40,2013-02-13 04:00:00
11:30 AM,84.2,69.8,62,29.86,1.2,ENE,6.9,-,N/A,,Haze,60,2013-02-13 04:30:00
12:00 PM,87.8,69.8,55,29.86,1.2,ESE,6.9,-,N/A,,Haze,120,2013-02-13 05:00:00
12:30 PM,87.8,73.4,62,29.86,1.2,SSE,6.9,-,N/A,,Haze,160,2013-02-13 05:30:00
1:00 PM,86.0,71.6,62,29.83,1.2,SSE,9.2,-,N/A,,Haze,160,2013-02-13 06:00:00
1:30 PM,84.2,71.6,66,29.83,1.2,SSW,9.2,-,N/A,,Mostly Cloudy,200,2013-02-13 06:30:00
2:00 PM,86.0,71.6,62,29.83,1.2,SSW,6.9,-,N/A,,Mostly Cloudy,200,2013-02-13 07:00:00
2:30 PM,84.2,71.6,66,29.80,1.2,South,6.9,-,N/A,,Mostly Cloudy,190,2013-02-13 07:30:00
3:00 PM,84.2,73.4,70,29.80,1.2,SSW,6.9,-,N/A,,Mostly Cloudy,200,2013-02-13 08:00:00
3:30 PM,84.2,71.6,66,29.80,1.2,South,6.9,-,N/A,,Mostly Cloudy,180,2013-02-13 08:30:00
4:00 PM,84.2,73.4,70,29.80,1.2,South,6.9,-,N/A,,Mostly Cloudy,190,2013-02-13 09:00:00
4:30 PM,84.2,71.6,66,29.80,1.2,South,6.9,-,N/A,,Mostly Cloudy,180,2013-02-13 09:30:00
5:00 PM,84.2,71.6,66,29.80,1.2,South,5.8,-,N/A,,Mostly Cloudy,180,2013-02-13 10:00:00
5:30 PM,84.2,71.6,66,29.80,1.2,South,6.9,-,N/A,,Mostly Cloudy,190,2013-02-13 10:30:00
6:00 PM,82.4,71.6,70,29.80,1.2,South,6.9,-,N/A,,Mostly Cloudy,190,2013-02-13 11:00:00
6:30 PM,80.6,73.4,79,29.83,1.2,SSW,4.6,-,N/A,,Mostly Cloudy,210,2013-02-13 11:30:00
7:00 PM,80.6,73.4,79,29.83,1.2,SW,4.6,-,N/A,,Mostly Cloudy,220,2013-02-13 12:00:00
7:30 PM,80.6,73.4,79,29.83,1.2,WSW,3.5,-,N/A,,Mostly Cloudy,240,2013-02-13 12:30:00
8:00 PM,80.6,73.4,79,29.83,1.2,WSW,3.5,-,N/A,,Scattered Clouds,240,2013-02-13 13:00:00
8:30 PM,78.8,73.4,83,29.86,1.2,WSW,3.5,-,N/A,,Mostly Cloudy,240,2013-02-13 13:30:00
9:00 PM,78.8,73.4,83,29.86,1.2,SW,3.5,-,N/A,,Scattered Clouds,230,2013-02-13 14:00:00
9:30 PM,78.8,73.4,83,29.86,1.2,SW,3.5,-,N/A,,Mostly Cloudy,230,2013-02-13 14:30:00
10:00 PM,78.8,73.4,83,29.86,1.2,NNW,3.5,-,N/A,,Scattered Clouds,330,2013-02-13 15:00:00
10:30 PM,77.0,73.4,89,29.86,1.2,North,3.5,-,N/A,,Scattered Clouds,350,2013-02-13 15:30:00
11:00 PM,77.0,73.4,89,29.86,1.2,Calm,Calm,-,N/A,,Scattered Clouds,0,2013-02-13 16:00:00
11:30 PM,77.0,73.4,89,29.86,1.2,Calm,Calm,-,N/A,,Scattered Clouds,0,2013-02-13 16:30:00